Location: Les Arnoux
(46.6898°N, 3.4810°E)
Time: 14:59:46
(UTC+00:00)

Daily predictions for brighter satellites

Satellite Brightness Start Highest point End
(mag) Time Altitude Azimuth Time Altitude Azimuth Time Altitude Azimuth
Cosmos 1703 4.1 20:16:59 10° SSE 20:20:27 32° E 20:23:57 10° NNE
COSMOS 2428 4.1 20:17:28 10° SE 20:21:17 19° E 20:25:06 10° ENE
Geosat 4.5 20:16:37 10° SSE 20:21:35 60° WSW 20:26:34 10° NW
Cosmos 1812 Rocket 3.5 20:18:00 10° N 20:22:23 82° E 20:26:41 10° S
Cosmos 1844 4.2 20:18:00 10° NNW 20:23:38 51° ENE 20:29:12 10° SE
Cosmos 2322 4.4 20:19:52 10° SSE 20:24:55 33° ESE 20:29:59 10° NE
CZ-2C R/B 4.4 20:21:28 10° N 20:26:12 65° WNW 20:30:56 10° SSW
Cosmos 1602 Rocket 3.7 20:24:46 10° S 20:29:10 82° W 20:33:39 10° N
Cosmos 2263 Rocket 3.9 20:27:09 10° NW 20:31:50 28° WSW 20:36:30 10° SSW
Cosmos 1709 Rocket 4.5 20:26:08 10° SSE 20:32:01 44° E 20:38:00 10° NNE
Nadezhda 1 Rocket 4.1 20:26:33 10° N 20:33:00 85° E 20:39:24 10° S
Atlas Centaur 2 3.9 20:30:22 10° SSW 20:34:15 18° S 20:38:40 10° SE
MetOp-B 4.2 20:28:58 10° SSE 20:34:19 83° ENE 20:39:42 10° NNW
Terra 3.3 20:32:08 10° ESE 20:35:55 24° ENE 20:39:43 10° N
Cosmos 2219 Rocket 3.1 20:32:31 10° SSE 20:37:09 28° ESE 20:41:49 10° NE
Cosmos 2360 Rocket 2.2 20:33:12 10° SSW 20:38:49 76° ESE 20:44:30 10° NNE
IGS 5A 3.5 20:35:53 10° SSE 20:39:58 65° ENE 20:44:07 10° N
Cosmos 2333 Rocket 2.8 20:41:44 10° S 20:46:51 36° ESE 20:52:00 10° NE
ATLAS 2AS CENTAUR R/B 4.3 20:43:26 10° NW 20:50:16 32° NNE 20:56:39 10° E
Cosmos 1315 Rocket 4.1 20:47:40 10° N 20:51:15 28° ENE 20:54:13 13° SE
Resurs 01 Rocket 2.8 20:47:42 10° SSW 20:51:51 40° W 20:56:02 10° NNW
Cosmos 1818 3.6 20:48:36 10° SW 20:54:02 90° SSE 20:59:32 10° NE
CZ-2C R/B 4.4 20:49:18 10° N 20:54:10 35° WNW 20:58:56 10° SW
Cosmos-2242 3.0 20:50:33 10° N 20:54:54 81° E 20:59:06 11° SSE
Cosmos 773 Rocket 4.2 20:51:46 10° S 20:56:54 54° ESE 21:02:04 10° NNE
SL-16 R/B 3.8 20:52:37 10° WSW 20:57:55 39° NW 21:03:16 10° NNE
Cosmos 2221 4.1 20:56:13 10° NNE 20:59:40 22° ENE 21:02:29 13° ESE
ERS-1 Rocket 3.1 20:56:51 13° SSE 21:01:17 62° ENE 21:06:17 10° N
GEOS 3 Rocket 3.7 20:58:49 10° NE 21:04:15 77° SE 21:09:38 10° SW
USA 215 3.4 21:01:19 10° ENE 21:07:43 53° SE 21:14:04 10° SSW
Cosmos 2278 Rocket 3.3 21:03:20 10° NNW 21:08:28 33° NE 21:13:09 12° ESE
ATLAS 5 CENTAUR R/B 1.7 21:06:36 10° SW 21:10:45 75° NW 21:15:25 10° NE
USA 245 3.9 21:08:35 11° S 21:11:36 49° W 21:15:35 10° NNW
Meteor 1-11 4.2 21:06:03 10° S 21:11:36 67° E 21:17:16 10° NNE
Cosmos 1844 Rocket 3.1 21:07:58 10° NNW 21:13:28 59° WSW 21:18:16 13° S
Gblst 52 Del rocket 4.5 21:08:19 10° WNW 21:13:57 73° NNE 21:20:16 10° ESE
Cosmos 1400 Rocket 3.2 21:10:17 10° NNW 21:14:13 60° W 21:17:41 13° S
Cosmos 1758 Rocket 4.3 21:10:18 10° SSW 21:14:43 57° WNW 21:19:10 10° N
SPOT 5 2.9 21:13:56 16° SSE 21:17:59 76° ENE 21:22:48 10° N
Lacrosse 5 rocket 4.1 21:16:20 10° WNW 21:19:31 20° N 21:22:34 10° NE
Spot 2 Rocket 4.3 21:17:00 10° S 21:21:54 49° W 21:26:52 10° NNW
USA 81 4.0 21:19:52 13° S 21:24:35 74° E 21:29:52 10° N
Cosmos 2058 4.4 21:25:00 18° ESE 21:26:33 22° E 21:29:48 10° NE
BREEZE M DEB (TANK) 2.0 21:24:50 10° WNW 21:27:12 43° SSW 21:27:39 36° S
Cosmos 2181 Rocket 4.0 21:22:46 10° N 21:29:11 88° E 21:34:15 16° S
Cosmos 2074 Rocket 4.3 21:29:16 18° SSE 21:33:46 51° E 21:39:45 10° NNE
SPOT 1/Viking Rocket 4.3 21:31:53 12° S 21:36:30 47° W 21:41:31 10° NNW
Cosmos 1953 Rocket 4.0 21:33:34 10° SSW 21:37:50 58° WNW 21:42:07 10° N
USA 267 3.5 21:34:05 11° ESE 21:40:25 69° NNE 21:46:57 10° NW
Cosmos 2084 3.5 21:41:12 10° NW 21:45:41 87° SW 21:48:05 27° SE
Cosmos 1842 Rocket 3.5 21:42:20 10° N 21:46:43 76° E 21:49:02 27° SSE
JB-3 4.5 21:44:38 10° NNE 21:48:24 50° E 21:49:57 30° SSE
MTI 3.7 21:49:20 10° NNE 21:52:23 58° E 21:53:10 41° SSE
Cosmos 923 Rocket 4.3 21:52:20 24° SSE 21:55:15 50° ESE 22:00:21 10° NNE
ATLAS CENTAUR R/B 1.2 21:53:29 10° NW 21:57:08 61° WSW 21:58:26 35° S
Cosmos 1825 3.8 21:58:09 19° E 21:58:41 20° E 22:01:29 10° NE
Cosmos 1980 4.0 21:56:55 24° S 22:00:01 47° ESE 22:05:25 10° NE
COSMOS 2428 2.9 21:59:15 10° SSW 22:04:54 73° WNW 22:10:36 10° NNE
Cosmos 1869 3.3 22:03:41 10° NNW 22:07:40 78° W 22:09:22 33° S
NOSS 0 Rocket 3.9 22:07:31 17° SSW 22:12:18 70° ESE 22:18:27 10° NNE
Terra 2.6 22:10:34 21° SSW 22:13:24 45° W 22:17:59 10° NNW
NOSS 3-4 (A) 4.0 22:07:21 10° NW 22:14:16 69° NE 22:19:46 20° SE
NOSS 3-4 (C) 4.0 22:07:28 10° NW 22:14:23 69° NE 22:19:55 20° SE
Cosmos 2237 Rocket 2.2 22:14:58 25° S 22:18:14 62° ESE 22:23:52 10° NNE
Genesis I 3.6 22:18:36 39° SE 22:18:51 40° ESE 22:22:32 10° NE
BREEZE-M DEB 4.5 22:16:22 10° WNW 22:20:40 72° SSW 22:38:39 10° SE
Cosmos 2344 3.8 22:16:02 21° S 22:20:46 49° ESE 22:28:15 10° NE
Cosmos 2219 Rocket 3.0 22:15:23 10° SW 22:20:48 50° WNW 22:26:17 10° NNE
BREEZE-M R/B 4.4 22:12:14 10° WNW 22:21:23 42° SW 22:23:37 29° S
Elektron 1 4.2 22:21:21 42° S 22:22:18 64° SE 22:27:13 10° NE
Atlas Centaur 2 4.1 22:18:16 10° SW 22:21:20 17° SSW 22:21:20 17° SSW
NOSS 3-3 (A) 4.4 22:17:43 10° SW 22:23:35 65° NW 22:30:15 10° NE
NOSS 3-3 (C) 4.4 22:17:48 10° SW 22:23:41 65° NW 22:30:23 10° NE
DELTA 2 R/B (1) 4.1 22:23:38 10° SW 22:28:39 35° SSE 22:30:02 31° SE
Cosmos 2333 Rocket 3.4 22:25:40 10° SW 22:31:02 41° NW 22:36:28 10° NNE
Thor Agena Rocket 3.5 22:26:04 10° NNE 22:31:10 65° ESE 22:33:18 34° S
Cosmos 2184 Rocket 4.3 22:27:10 18° SSW 22:31:55 64° WNW 22:38:12 10° N
Cosmos 2221 3.6 22:33:18 10° NNW 22:37:22 38° W 22:39:20 24° SW
BREEZE-M DEB (TANK) 1.8 22:36:40 10° WNW 22:40:44 65° NNE 22:41:22 45° ENE
Iridium 2 3.6 22:37:45 10° N 22:41:35 89° NE 22:42:26 53° S
Cosmos 1371 Rocket 4.0 22:36:44 10° NNW 22:42:01 80° ENE 22:44:15 36° SSE
ATLAS 2AS CENTAUR R/B 2.8 22:34:39 10° NW 22:42:17 88° NE 22:46:25 28° SE
Cosmos 1892 3.4 22:41:59 30° SW 22:43:28 48° WNW 22:47:10 10° N
EO 1 Del DPAF 3.1 22:40:27 10° NNE 22:44:14 78° ESE 22:44:59 54° S
Cosmos 1766 Rocket 4.2 22:44:24 35° ESE 22:45:18 39° E 22:49:25 10° NNE
MOS 1-B Rocket 4.4 22:38:22 10° NNE 22:46:10 77° ESE 22:49:56 29° S
Okean 3 Rocket 4.0 22:47:02 40° SE 22:48:05 49° E 22:52:22 10° NNE
Aureole 2 Rocket 2.9 22:46:22 10° N 22:48:59 38° ENE 22:48:59 38° ENE
Cosmos 1328 Rocket 4.5 22:45:10 10° N 22:49:11 36° ENE 22:50:25 30° ESE
USA 215 3.8 22:44:21 10° NE 22:50:49 61° NNW 22:57:14 10° WSW
Cosmos 2112 Rocket 4.0 22:48:23 28° SSW 22:51:16 85° WNW 22:56:40 10° NNE
Cosmos 1606 3.3 22:47:49 10° N 22:51:35 46° ENE 22:52:19 40° ESE
Cosmos 2278 Rocket 2.8 22:47:19 10° NW 22:52:42 46° WSW 22:54:59 30° SSW
Cosmos 2297 4.1 22:48:34 10° NNW 22:54:16 60° ENE 22:57:11 28° SE
Cosmos 158 Rocket 3.9 22:52:56 28° SW 22:55:29 72° WNW 23:00:24 10° NNE
Cosmos 1420 Rocket 4.5 22:53:00 10° NNW 22:58:11 53° ENE 23:00:36 30° SE
Cosmos 2366 rocket 4.5 22:56:35 31° SE 22:59:16 49° E 23:05:21 10° NNE
Lacrosse 5 rocket 3.7 22:56:31 10° NW 22:59:48 23° NNE 23:02:56 10° ENE
Spot 4 4.0 22:59:07 39° SSW 23:00:45 62° WSW 23:05:31 10° NNW
Cosmos 1943 Rocket 3.4 22:55:33 10° NNW 23:00:45 36° NE 23:04:40 16° ESE
SL-16 R/B 2.4 23:00:46 37° SSE 23:02:36 52° ESE 23:08:06 10° NE
TIMED 4.4 23:01:49 46° SSW 23:03:05 88° ESE 23:07:30 10° NNE
Cosmos 2058 4.3 23:01:10 21° SW 23:03:17 33° WNW 23:07:04 10° N
Cosmos 1408 3.4 23:03:24 35° WSW 23:04:18 43° WNW 23:07:44 10° N
Cosmos 2056 Rocket 3.6 23:00:33 10° NNW 23:05:58 76° WSW 23:07:58 40° S
Cosmos 2341 Rocket 4.0 23:11:46 32° SSW 23:14:50 81° W 23:21:06 10° N
Cosmos 332 Rocket 4.3 23:14:52 10° NNW 23:19:34 50° ENE 23:21:28 32° ESE
Cosmos 1680 Rocket 4.5 23:15:58 17° SW 23:19:47 45° WNW 23:24:54 10° NNE
Meteor 2-3 Rocket 3.9 23:21:02 38° SSE 23:22:59 58° E 23:28:36 10° NNE
USA 267 3.7 23:21:24 34° S 23:23:39 44° SW 23:29:53 10° WNW
Cosmos 2151 3.6 23:23:52 36° SW 23:25:12 51° WNW 23:29:23 10° N
IRIDIUM 104 4.3 23:23:26 43° S 23:25:13 85° E 23:30:28 10° N
Helios 1A 3.2 23:24:53 45° SE 23:25:52 60° ENE 23:30:00 10° N
Cosmos 405 4.1 23:25:26 10° N 23:28:41 33° ENE 23:29:08 32° E
Meteor 1-26 Rocket 4.4 23:26:50 10° N 23:32:53 77° E 23:35:20 37° SSE
Cosmos 1452 Rocket 3.6 23:27:45 10° NNW 23:33:02 70° ENE 23:35:06 37° SE
CZ-4C R/B 3.8 23:26:55 10° NNW 23:33:33 45° NE 23:41:13 10° ESE
SL-8 Rocket 4.0 23:30:59 35° SSW 23:33:47 78° W 23:40:00 10° N
Cosmos 1825 3.5 23:32:56 26° WSW 23:33:59 31° WNW 23:37:25 10° N
IRIDIUM 114 4.3 23:32:35 42° SSW 23:34:23 80° W 23:39:38 10° N
Cosmos 1340 2.4 23:34:23 74° SSE 23:34:40 82° E 23:38:27 10° NNE
COSMOS 2455 3.1 23:28:45 10° NNW 23:34:47 65° NE 23:38:24 25° SE
ALOS 2 3.0 23:35:27 43° SW 23:36:21 51° W 23:40:38 10° NNW
Cosmos 1408 Rocket 3.5 23:35:56 56° S 23:36:50 81° E 23:41:15 10° N
Cosmos 1933 3.3 23:33:40 10° NNW 23:37:41 69° W 23:38:13 59° SW
Cosmos 1151 Rocket 3.1 23:34:56 10° NNW 23:39:14 64° W 23:40:03 51° SSW
Meteor 2-12 Rocket 4.4 23:37:27 37° SSW 23:40:06 84° W 23:46:17 10° N
IRIDIUM 103 4.5 23:41:42 40° SSW 23:43:33 67° W 23:48:46 10° N
APEX 3.4 23:42:19 10° NNW 23:44:22 45° NNW 23:44:22 45° NNW
Cosmos 44 3.2 23:43:37 39° WSW 23:45:08 69° NW 23:49:35 10° NNE
Cosmos 1727 Rocket 4.0 23:39:05 10° N 23:45:21 83° E 23:48:04 37° SSE
Cosmos 2369 Rocket 2.8 23:39:58 10° NNW 23:45:27 52° ENE 23:48:49 23° SE
Cosmos 1500 Rocket 4.0 23:44:49 43° SE 23:45:40 50° E 23:49:56 10° NNE
SL-4 R/B 3.6 23:48:59 15° NNW 23:48:59 15° NNW 23:49:26 10° NNW
GP-B 3.7 23:43:22 10° N 23:47:39 47° W 23:48:50 37° SW
Cosmos 371 Rocket 3.3 23:44:27 10° NNW 23:49:17 65° WSW 23:50:25 49° SSW
SeaSat 1 4.5 23:47:55 10° ENE 23:50:29 14° ESE 23:51:20 13° ESE
Helios 1B rocket 3.2 23:50:59 10° NNE 23:54:50 37° E 23:55:23 35° ESE
CREW DRAGON DEMO-1 DEB 3.8 23:54:49 37° WNW 23:55:32 47° NNW 23:58:32 10° ENE
